Location: Archamps
(46.1365°N, 6.1329°E)
Time: 01:42:05
(UTC+00:00)

CSL-04 Rocket - Pass Details

Date: 28 January 2023
Orbit: 806 x 859 km, 98.8° (Epoch: 24 March)

Event Time Altitude Azimuth Distance (km) Brightness Sun altitude
Exits shadow 18:50:14 40° 32° (NNE) 1,187 4.2 -23.6°
Drops below altitude 10° 18:54:10 10° 356° (N) 2,430 6.1 -24.2°
Sets 18:56:36 0° 351° (N) 3,375 6.9 -24.7°
